Theta_e
312 313 312 315 316 315 318 320 322 322 321 321 322 322 324 324 323 324 324 323 324 324 324 324 325 325 323 326 330 349 353 353 352 350 347 349 348 345 346 341 340 341 339 334
312 312 312 312 312 313 315 320 319 318 320 322 321 322 323 323 324 324 325 323 324 323 325 327 325 325 325 326 336 339 356 354 354 353 351 350 348 349 346 345 344 344 344 331
311 311 311 311 311 311 312 312 314 315 316 318 320 320 321 321 322 321 322 323 324 324 325 325 326 327 327 326 327 338 351 357 355 354 352 351 350 351 346 347 345 346 345 341
311 311 311 311 311 311 311 311 311 312 314 320 319 322 321 322 323 322 322 321 321 322 323 324 325 326 327 328 327 346 344 359 356 356 354 351 352 351 350 348 347 346 346 345
312 312 312 312 311 311 310 310 310 310 312 317 319 320 321 322 322 323 323 321 321 321 321 322 322 324 326 328 327 327 351 351 354 358 355 352 351 350 351 349 350 349 347 346
312 311 312 313 312 311 312 312 313 313 312 316 315 317 318 321 321 321 323 322 322 322 321 321 322 322 323 327 328 327 353 349 352 355 356 354 350 353 351 350 350 349 348 345
312 312 313 312 313 311 312 313 317 316 315 315 313 315 319 320 321 321 322 322 322 322 322 323 322 322 322 323 328 328 341 349 349 351 356 355 352 352 351 351 348 349 347 345
313 313 313 313 312 312 315 314 317 319 316 313 314 317 318 320 321 321 321 321 321 321 322 323 323 323 323 322 325 328 328 351 350 346 355 355 354 352 352 351 350 351 349 347
313 313 313 313 313 313 313 314 314 317 316 320 317 317 318 319 320 320 322 320 320 321 322 323 323 322 322 322 323 327 327 351 350 346 348 356 354 355 351 351 349 351 350 349
311 314 312 313 313 315 315 315 317 317 315 317 314 315 322 324 322 321 321 322 321 321 321 322 322 323 322 322 322 327 327 335 352 345 346 351 354 354 353 353 349 349 349 349
312 314 313 312 314 315 317 316 317 317 317 320 322 321 319 322 322 326 325 324 323 323 324 324 323 324 323 321 322 324 328 326 351 353 348 349 354 354 352 351 349 348 348 349
312 313 313 312 313 316 317 317 318 320 317 317 319 320 321 321 321 316 324 320 321 323 323 323 323 324 325 323 323 324 328 327 342 352 354 352 350 353 352 350 349 346 348 348
313 313 315 314 317 316 315 315 317 319 320 319 321 319 321 319 319 319 321 320 320 321 320 321 321 322 323 325 324 324 326 329 327 346 352 354 353 353 352 350 349 346 344 349
311 313 314 315 314 314 317 316 316 317 320 320 319 319 320 321 317 317 320 320 319 319 321 320 320 320 321 324 325 326 326 327 327 335 347 352 349 349 352 350 345 340 340 333
313 316 314 314 314 315 316 317 316 319 318 320 320 318 316 316 316 317 318 320 320 321 321 322 323 325 324 327 326 327 326 328 326 328 340 348 345 345 343 343 343 333 337 330
312 314 313 314 315 315 317 318 317 315 314 314 315 314 313 311 312 313 315 316 318 320 321 323 323 323 324 326 329 328 330 329 329 327 331 346 346 345 346 340 339 332 332 334
313 314 315 316 314 317 322 312 313 312 311 311 313 312 310 310 309 309 311 313 316 316 318 319 321 321 322 324 326 326 330 330 331 331 330 346 345 343 345 344 337 335 335 340
315 316 313 317 317 323 313 310 310 311 310 309 309 308 307 305 305 306 306 308 309 310 312 313 315 316 318 321 324 326 327 331 331 332 332 341 345 344 350 344 340 341 340 339
316 313 314 319 317 316 314 311 309 309 311 308 307 306 304 303 305 307 301 303 306 307 308 309 313 313 314 316 320 325 325 332 333 335 337 341 344 347 349 347 346 344 345 341
316 314 313 316 317 322 310 308 308 310 314 308 305 305 304 303 305 304 300 301 303 306 307 308 308 311 314 316 319 322 325 331 334 337 339 342 341 343 344 345 346 344 342 338
316 315 316 317 317 318 309 307 307 312 311 305 305 303 301 303 300 300 300 301 303 305 306 306 308 310 313 318 321 327 334 335 334 334 337 338 335 338 343 341 337 336 336 333
315 316 314 314 316 317 306 306 307 306 305 304 303 301 301 300 300 300 301 300 302 304 305 306 309 312 316 320 327 330 331 330 331 334 335 336 337 337 338 336 332 331 332 328
316 314 314 312 313 310 306 304 303 305 304 302 301 302 303 302 301 302 301 300 301 302 303 305 307 312 316 321 326 328 328 328 332 333 335 336 336 335 334 333 329 325 322 320
314 313 314 313 312 309 304 303 303 303 303 301 301 304 305 303 302 302 302 302 301 301 302 303 306 309 311 314 319 321 323 326 329 332 332 331 335 329 329 327 326 323 321 319
314 312 312 313 310 306 306 302 302 302 302 302 303 304 304 304 304 304 303 302 302 300 301 303 305 306 308 311 313 316 317 321 324 324 323 324 324 323 321 319 318 321 318 315
314 313 312 313 306 304 303 302 302 302 301 301 301 303 303 304 305 304 305 302 301 301 300 301 304 306 307 309 310 312 314 316 317 318 318 318 318 318 318 318 315 314 313 312
Wind_Speed
24 16 17 21 22 24 16 23 28 27 30 29 28 27 27 23 26 18 31 20 25 22 30 38 36 35 41 37 41 32 40 39 39 40 43 35 33 34 29 30 29 26 22 35
18 19 21 24 23 19 11 13 19 26 28 25 25 28 23 21 16 27 30 20 18 25 22 15 35 34 30 29 36 43 39 41 40 42 37 40 37 33 34 31 31 30 27 31
19 23 23 20 21 20 21 19 19 20 25 26 25 23 25 25 22 24 23 20 19 26 23 23 21 22 27 37 31 37 41 45 45 43 41 40 36 30 37 32 35 35 33 32
14 18 19 19 21 18 23 22 19 19 16 14 21 17 23 24 23 22 23 26 28 31 26 27 28 28 26 28 36 24 46 44 47 44 41 46 40 39 39 38 38 39 38 34
17 17 20 16 21 18 20 22 21 22 21 10 22 13 18 22 25 21 23 31 36 37 37 34 39 33 32 25 26 31 42 42 46 45 45 47 42 41 36 39 38 41 43 39
20 18 7 18 19 16 20 18 23 23 17 15 21 15 18 21 23 20 21 29 38 43 46 41 37 37 36 34 35 40 41 45 45 49 50 50 50 38 37 42 41 43 44 41
23 20 11 6 13 13 22 8 6 7 11 13 21 17 20 21 26 24 22 27 31 27 30 32 43 42 40 39 37 39 35 42 42 49 52 50 51 45 46 43 44 47 45 43
15 18 11 16 21 16 19 9 4 7 9 14 18 7 16 22 24 31 33 31 31 31 30 32 32 37 41 42 39 38 40 44 44 43 50 55 52 53 45 45 46 46 44 38
13 11 26 25 9 14 13 16 6 5 9 13 13 18 20 20 24 22 21 30 17 24 15 16 19 29 33 39 43 43 40 42 46 43 44 50 55 50 52 43 44 42 35 37
10 14 14 16 24 14 9 10 6 4 7 11 13 16 4 20 16 9 15 12 16 16 16 15 18 21 29 33 36 44 44 39 46 42 42 49 56 55 52 36 44 42 38 40
15 3 14 22 14 17 11 6 4 5 1 6 7 4 5 18 19 11 16 29 1 3 6 11 8 19 15 29 26 27 43 43 42 45 43 43 53 56 46 40 41 39 40 44
9 5 10 23 25 4 5 10 13 4 8 12 10 9 1 6 18 22 17 16 30 11 10 13 8 14 17 12 18 16 38 42 34 42 42 43 42 50 46 46 37 39 35 46
6 3 8 11 2 6 14 21 15 12 10 14 11 9 2 6 7 18 18 18 17 13 5 5 10 18 26 21 17 20 16 26 42 37 38 39 40 41 46 46 40 29 32 29
4 4 9 11 20 17 17 23 21 11 5 17 17 20 24 17 18 22 25 20 18 24 26 9 9 11 20 26 25 20 20 24 27 25 43 41 41 41 47 52 57 37 38 30
3 6 14 20 21 22 21 23 19 17 17 14 18 21 23 22 15 23 34 21 23 16 18 17 11 16 15 12 23 23 20 14 23 35 29 42 36 35 45 44 48 40 64 35
1 5 17 19 15 20 13 12 12 16 17 19 24 32 18 28 29 23 26 24 29 23 21 19 12 18 27 24 15 25 18 17 16 33 30 31 33 28 37 49 51 42 39 42
3 4 5 8 21 19 4 7 7 13 17 15 12 17 23 23 21 23 26 21 16 15 18 16 13 19 24 27 24 9 30 15 18 23 32 30 30 27 31 36 43 47 44 51
8 11 2 7 14 4 4 7 15 14 14 9 12 17 17 20 26 18 19 17 16 17 18 18 16 22 26 25 22 9 28 16 16 26 25 28 36 36 34 32 34 38 44 43
7 0 4 4 8 8 4 9 16 13 6 9 9 11 16 25 22 3 23 22 19 18 19 20 21 24 27 25 22 20 24 22 21 21 13 24 35 38 38 39 41 44 48 47
8 5 1 4 5 3 5 21 34 10 3 20 14 11 13 19 8 6 28 22 19 16 17 19 22 24 23 22 20 20 26 23 23 13 16 22 24 37 39 46 47 49 47 44
7 6 4 6 4 2 11 19 27 6 9 28 20 20 19 7 10 22 25 26 19 14 16 19 19 21 21 17 16 16 17 22 24 23 24 24 18 20 39 47 48 49 46 41
2 5 4 4 4 3 22 8 5 10 16 16 18 20 20 22 22 26 26 28 23 17 13 8 4 4 11 11 12 17 15 21 24 23 24 21 24 29 38 43 42 41 40 38
2 1 2 3 3 4 10 10 16 16 11 14 17 19 22 24 27 25 26 30 24 23 15 13 14 11 6 9 12 15 15 20 22 23 22 26 29 36 39 41 40 40 41 40
5 3 4 5 3 8 5 16 16 11 11 12 14 19 19 21 28 29 25 31 29 28 22 21 23 23 22 16 18 21 23 24 28 33 36 36 37 40 40 40 39 38 34 32
7 8 8 8 5 12 4 14 13 10 10 11 15 17 20 22 23 29 25 32 33 33 28 25 27 27 26 24 24 24 26 28 32 37 41 43 44 43 43 41 36 32 29 27
5 3 3 3 2 2 6 9 8 9 11 12 13 16 19 28 23 26 27 33 33 34 32 27 25 25 23 23 26 27 29 32 35 39 41 42 44 41 41 39 37 28 27 26
Wind_Direction
313 298 288 276 289 303 260 303 306 306 297 298 302 252 251 242 227 241 244 248 219 229 231 229 230 229 226 223 207 204 195 194 198 197 195 197 196 198 194 197 204 217 211 195
309 305 319 325 314 293 275 257 270 295 301 298 310 304 283 290 234 226 240 233 238 243 250 243 218 230 223 221 204 202 200 201 205 203 206 194 196 203 192 200 203 212 215 207
319 302 308 306 298 294 281 286 304 291 287 299 296 285 293 266 275 266 267 267 249 229 238 250 248 242 230 216 204 212 203 203 207 206 203 194 200 202 198 200 201 211 217 210
295 296 295 291 291 295 292 311 309 297 301 287 300 293 273 276 256 244 247 255 266 266 252 249 255 239 238 205 211 210 206 202 204 204 194 194 198 201 202 198 203 209 219 211
312 301 295 309 296 298 295 295 290 287 284 275 284 268 267 262 264 253 227 232 240 245 247 237 243 249 235 227 216 222 204 203 206 202 200 198 198 205 205 197 201 203 213 214
333 334 9 276 309 314 312 317 305 285 265 261 259 265 271 271 265 250 250 242 229 227 229 233 227 236 241 224 219 215 209 207 211 209 204 202 199 203 202 199 203 214 213 213
322 329 11 324 329 303 291 285 295 269 249 247 252 244 249 277 266 264 266 261 250 236 240 229 219 227 232 233 214 214 217 211 214 213 208 204 204 199 207 207 210 211 212 213
344 321 51 314 297 309 306 333 273 302 254 275 269 261 257 229 263 266 275 263 257 232 227 227 223 218 223 227 224 205 215 207 210 218 215 210 206 208 206 209 204 210 204 206
323 296 318 303 347 325 303 296 256 261 282 272 255 245 249 268 262 262 287 253 270 261 231 252 232 219 229 222 220 212 210 207 209 219 219 216 210 208 206 209 205 202 198 204
316 298 303 303 324 315 292 313 302 283 286 268 260 262 342 343 312 274 263 275 232 243 250 236 251 261 233 232 225 210 206 209 206 216 221 220 214 211 209 209 204 205 198 201
321 274 291 303 310 304 309 296 287 248 162 292 335 334 291 287 323 333 13 335 20 89 56 13 267 293 256 235 228 220 203 205 205 208 219 220 218 216 212 207 208 201 201 199
321 277 289 290 298 341 345 311 316 276 302 294 283 278 88 225 12 358 335 7 1 39 28 4 335 323 331 254 236 232 202 206 208 203 211 220 225 221 211 206 201 195 208 210
333 267 306 304 8 310 337 322 324 314 293 278 293 290 80 2 27 288 295 349 328 342 13 358 331 315 317 310 248 250 247 211 216 210 206 212 214 216 215 206 201 189 193 212
195 241 251 272 283 294 294 304 305 292 268 297 289 314 327 24 11 312 331 341 331 337 319 308 305 294 302 295 312 255 256 234 230 231 210 208 219 218 219 209 203 220 218 276
145 268 286 290 291 289 277 278 295 310 312 306 313 309 324 323 358 315 315 329 326 311 299 317 314 317 297 325 289 301 263 296 223 237 232 210 216 216 218 219 218 222 216 232
216 266 303 295 305 313 309 18 12 356 336 321 319 308 340 326 323 319 312 327 319 309 298 318 321 311 311 315 330 296 286 285 278 225 240 215 204 209 217 225 219 207 208 223
281 274 297 290 323 317 97 36 5 314 310 313 305 303 316 317 322 320 309 300 304 317 334 339 320 306 299 302 307 260 301 278 268 254 229 210 186 206 215 216 214 208 210 199
246 278 320 293 322 354 120 356 345 310 301 302 280 294 319 319 310 304 359 346 335 330 322 317 304 287 285 288 286 250 277 266 271 286 229 217 190 192 192 189 184 184 177 184
236 10 286 305 309 263 34 350 337 334 340 3 316 313 318 321 322 18 347 344 336 312 296 290 286 282 281 280 265 251 244 256 271 289 231 205 200 181 173 174 176 176 168 170
94 133 175 303 302 330 345 338 331 315 222 359 345 331 332 330 343 330 336 337 339 321 302 295 287 287 286 282 265 253 238 238 282 225 207 197 191 178 172 161 167 167 171 170
355 346 291 305 286 104 358 347 329 18 321 330 354 358 355 346 333 328 348 349 348 343 318 301 293 283 284 284 258 243 252 226 217 214 201 195 186 188 166 154 151 158 167 174
24 331 344 318 277 319 17 356 26 312 322 353 4 3 350 351 353 359 0 360 4 7 353 346 355 312 277 261 231 209 210 199 209 202 203 202 173 175 163 159 153 158 171 172
330 37 266 227 289 14 7 346 333 342 356 11 11 2 1 6 358 355 5 8 17 27 27 51 64 88 117 154 190 211 196 174 188 193 182 179 171 158 158 159 157 156 159 161
326 33 267 282 157 340 27 358 359 5 14 17 10 356 7 15 6 7 16 18 27 34 40 55 71 82 89 107 138 147 154 162 164 157 157 160 163 155 157 158 164 164 158 159
280 331 303 287 38 334 61 355 358 5 10 11 359 8 2 4 17 14 27 25 28 34 44 55 67 75 84 104 113 128 135 149 150 148 148 151 151 153 151 148 146 152 148 154
200 325 321 296 110 257 292 336 356 10 12 11 12 19 21 6 17 23 27 28 33 35 39 49 61 72 81 95 104 117 130 139 145 142 144 147 147 145 146 143 136 137 145 154